Time,TemperatureF,DewpointF,PressureIn,WindDirection,WindDirectionDegrees,WindSpeedMPH,WindSpeedGustMPH,Humidity,HourlyPrecipIn,Conditions,Clouds,dailyrainin,SoftwareType,DateUTC
2013-05-28 00:04:00,51.6,49.6,29.75,ESE,121,2.0,4.0,93,0.00,,,0.00,Wunderground v.1.15,2013-05-28 07:04:00,
2013-05-28 00:05:00,51.6,49.6,29.75,ESE,121,2.0,4.0,93,0.00,,,0.00,Wunderground v.1.15,2013-05-28 07:05:00,
2013-05-28 00:06:00,51.6,49.6,29.75,ESE,121,2.0,4.0,93,0.00,,,0.00,Wunderground v.1.15,2013-05-28 07:06:00,
2013-05-28 00:09:00,51.6,49.6,29.75,ESE,121,1.0,4.0,93,0.00,,,0.00,Wunderground v.1.15,2013-05-28 07:09:00,
2013-05-28 00:10:00,51.7,49.7,29.75,ESE,121,4.0,4.0,93,0.00,,,0.00,Wunderground v.1.15,2013-05-28 07:10:00,
2013-05-28 00:11:00,51.7,49.7,29.75,ESE,121,2.0,4.0,93,0.00,,,0.00,Wunderground v.1.15,2013-05-28 07:11:00,
2013-05-28 00:17:00,51.6,49.6,29.75,ESE,121,2.0,2.0,93,0.00,,,0.00,Wunderground v.1.15,2013-05-28 07:17:00,
2013-05-28 00:18:00,51.6,49.6,29.75,ESE,121,2.0,2.0,93,0.00,,,0.00,Wunderground v.1.15,2013-05-28 07:18:00,
2013-05-28 00:19:00,51.6,49.6,29.75,ESE,121,2.0,2.0,93,0.00,,,0.00,Wunderground v.1.15,2013-05-28 07:19:00,
2013-05-28 00:20:00,51.6,49.6,29.75,ESE,121,2.0,2.0,93,0.00,,,0.00,Wunderground v.1.15,2013-05-28 07:20:00,
2013-05-28 00:24:00,51.5,49.5,29.75,ESE,121,2.0,4.0,93,0.00,,,0.00,Wunderground v.1.15,2013-05-28 07:24:00,
2013-05-28 00:25:00,51.4,49.4,29.75,ESE,121,4.0,4.0,93,0.00,,,0.00,Wunderground v.1.15,2013-05-28 07:25:00,
2013-05-28 00:27:00,51.3,49.3,29.75,ESE,121,4.0,4.0,93,0.00,,,0.00,Wunderground v.1.15,2013-05-28 07:27:00,
2013-05-28 00:30:00,51.2,49.2,29.75,ESE,121,4.0,4.0,93,0.00,,,0.00,Wunderground v.1.15,2013-05-28 07:30:00,
2013-05-28 00:31:00,51.2,49.2,29.75,ESE,121,4.0,4.0,93,0.00,,,0.00,Wunderground v.1.15,2013-05-28 07:31:00,
2013-05-28 00:33:00,51.0,49.0,29.75,ESE,121,2.0,4.0,93,0.00,,,0.00,Wunderground v.1.15,2013-05-28 07:33:00,
2013-05-28 00:35:00,51.0,49.0,29.75,ESE,121,2.0,4.0,93,0.00,,,0.00,Wunderground v.1.15,2013-05-28 07:35:00,
2013-05-28 00:38:00,50.9,48.9,29.75,ESE,121,4.0,4.0,93,0.00,,,0.00,Wunderground v.1.15,2013-05-28 07:38:00,
2013-05-28 00:41:00,50.9,48.9,29.75,ESE,121,2.0,4.0,93,0.00,,,0.00,Wunderground v.1.15,2013-05-28 07:41:00,
2013-05-28 00:44:00,50.8,48.8,29.75,ESE,121,4.0,4.0,93,0.00,,,0.00,Wunderground v.1.15,2013-05-28 07:44:00,
2013-05-28 00:45:00,50.8,48.8,29.75,ESE,121,2.0,4.0,93,0.00,,,0.00,Wunderground v.1.15,2013-05-28 07:45:00,
2013-05-28 00:47:00,50.8,48.8,29.75,ESE,121,4.0,4.0,93,0.00,,,0.00,Wunderground v.1.15,2013-05-28 07:47:00,
2013-05-28 00:48:00,50.7,48.7,29.75,ESE,121,2.0,4.0,93,0.00,,,0.00,Wunderground v.1.15,2013-05-28 07:48:00,
2013-05-28 00:51:00,50.6,48.7,29.75,ESE,121,2.0,2.0,93,0.00,,,0.00,Wunderground v.1.15,2013-05-28 07:51:00,
2013-05-28 00:52:00,50.6,48.7,29.75,ESE,121,2.0,2.0,93,0.00,,,0.00,Wunderground v.1.15,2013-05-28 07:52:00,
2013-05-28 00:55:00,50.5,48.6,29.75,ESE,121,2.0,2.0,93,0.00,,,0.00,Wunderground v.1.15,2013-05-28 07:55:00,
2013-05-28 00:57:00,50.5,48.6,29.75,ESE,121,2.0,2.0,93,0.00,,,0.00,Wunderground v.1.15,2013-05-28 07:57:00,
2013-05-28 01:01:00,50.5,48.6,29.75,ESE,121,1.0,2.0,93,0.00,,,0.00,Wunderground v.1.15,2013-05-28 08:01:00,
2013-05-28 01:03:00,50.5,48.6,29.75,ESE,121,2.0,2.0,93,0.00,,,0.00,Wunderground v.1.15,2013-05-28 08:03:00,
2013-05-28 01:05:00,50.5,48.6,29.75,ESE,121,2.0,2.0,93,0.00,,,0.00,Wunderground v.1.15,2013-05-28 08:05:00,
2013-05-28 01:09:00,50.4,48.5,29.75,ESE,121,2.0,2.0,93,0.00,,,0.00,Wunderground v.1.15,2013-05-28 08:09:00,
2013-05-28 01:10:00,50.4,48.5,29.75,ESE,121,2.0,2.0,93,0.00,,,0.00,Wunderground v.1.15,2013-05-28 08:10:00,
2013-05-28 01:11:00,50.3,48.4,29.75,ESE,121,2.0,2.0,93,0.00,,,0.00,Wunderground v.1.15,2013-05-28 08:11:00,
2013-05-28 01:13:00,50.3,48.4,29.75,ESE,121,2.0,2.0,93,0.00,,,0.00,Wunderground v.1.15,2013-05-28 08:13:00,
2013-05-28 01:17:00,50.1,48.2,29.75,ESE,121,1.0,4.0,93,0.00,,,0.00,Wunderground v.1.15,2013-05-28 08:17:00,
2013-05-28 01:19:00,50.1,48.2,29.75,ESE,121,0.0,4.0,93,0.00,,,0.00,Wunderground v.1.15,2013-05-28 08:19:00,
2013-05-28 01:20:00,50.0,48.1,29.75,ESE,121,0.0,4.0,93,0.00,,,0.00,Wunderground v.1.15,2013-05-28 08:20:00,
2013-05-28 01:23:00,49.9,48.0,29.76,ESE,121,0.0,1.0,93,0.00,,,0.00,Wunderground v.1.15,2013-05-28 08:23:00,
2013-05-28 01:27:00,49.9,48.0,29.76,ESE,121,0.0,2.0,93,0.00,,,0.00,Wunderground v.1.15,2013-05-28 08:27:00,
2013-05-28 01:28:00,49.9,48.0,29.76,ESE,121,0.0,2.0,93,0.00,,,0.00,Wunderground v.1.15,2013-05-28 08:28:00,
2013-05-28 01:31:00,49.9,48.0,29.76,ESE,121,0.0,2.0,93,0.00,,,0.00,Wunderground v.1.15,2013-05-28 08:31:00,
2013-05-28 01:32:00,49.9,48.0,29.76,ESE,121,0.0,0.0,93,0.00,,,0.00,Wunderground v.1.15,2013-05-28 08:32:00,
2013-05-28 01:34:00,49.9,48.0,29.76,ESE,121,0.0,0.0,93,0.00,,,0.00,Wunderground v.1.15,2013-05-28 08:34:00,
2013-05-28 01:38:00,49.9,48.0,29.76,ESE,121,0.0,0.0,93,0.00,,,0.00,Wunderground v.1.15,2013-05-28 08:38:00,
2013-05-28 01:40:00,49.9,48.0,29.76,ESE,121,0.0,0.0,93,0.00,,,0.00,Wunderground v.1.15,2013-05-28 08:40:00,
2013-05-28 01:44:00,49.9,48.0,29.76,ESE,121,0.0,0.0,93,0.00,,,0.00,Wunderground v.1.15,2013-05-28 08:44:00,
2013-05-28 01:46:00,50.0,48.1,29.76,ESE,121,0.0,0.0,93,0.00,,,0.00,Wunderground v.1.15,2013-05-28 08:46:00,
2013-05-28 01:47:00,50.1,48.2,29.76,ESE,121,0.0,0.0,93,0.00,,,0.00,Wunderground v.1.15,2013-05-28 08:47:00,
2013-05-28 01:50:00,50.2,48.5,29.76,ESE,121,0.0,0.0,94,0.00,,,0.00,Wunderground v.1.15,2013-05-28 08:50:00,
2013-05-28 01:51:00,50.2,48.5,29.76,ESE,121,0.0,0.0,94,0.00,,,0.00,Wunderground v.1.15,2013-05-28 08:51:00,
2013-05-28 01:52:00,50.2,48.3,29.76,ESE,121,0.0,0.0,93,0.00,,,0.00,Wunderground v.1.15,2013-05-28 08:52:00,
2013-05-28 01:57:00,50.1,48.2,29.76,ESE,121,0.0,0.0,93,0.00,,,0.00,Wunderground v.1.15,2013-05-28 08:57:00,
2013-05-28 02:02:00,50.1,48.2,29.76,ESE,121,0.0,0.0,93,0.00,,,0.00,Wunderground v.1.15,2013-05-28 09:02:00,
2013-05-28 02:07:00,50.1,48.2,29.76,ESE,121,0.0,0.0,93,0.00,,,0.00,Wunderground v.1.15,2013-05-28 09:07:00,
2013-05-28 02:12:00,50.2,48.3,29.76,ESE,121,0.0,0.0,93,0.00,,,0.00,Wunderground v.1.15,2013-05-28 09:12:00,
2013-05-28 02:17:00,50.4,48.7,29.76,ESE,121,2.0,4.0,94,0.00,,,0.00,Wunderground v.1.15,2013-05-28 09:17:00,
2013-05-28 02:22:00,50.5,48.6,29.76,ESE,121,2.0,2.0,93,0.00,,,0.00,Wunderground v.1.15,2013-05-28 09:22:00,
2013-05-28 02:27:00,50.6,48.7,29.76,ESE,121,2.0,2.0,93,0.00,,,0.00,Wunderground v.1.15,2013-05-28 09:27:00,
2013-05-28 02:32:00,50.5,48.6,29.76,ESE,121,2.0,2.0,93,0.00,,,0.00,Wunderground v.1.15,2013-05-28 09:32:00,
2013-05-28 02:37:00,50.5,48.6,29.76,ESE,121,2.0,4.0,93,0.00,,,0.00,Wunderground v.1.15,2013-05-28 09:37:00,
2013-05-28 02:42:00,50.5,48.6,29.76,ESE,121,2.0,4.0,93,0.00,,,0.00,Wunderground v.1.15,2013-05-28 09:42:00,
2013-05-28 02:47:00,50.5,48.6,29.76,ESE,121,0.0,4.0,93,0.00,,,0.00,Wunderground v.1.15,2013-05-28 09:47:00,
2013-05-28 02:52:00,50.4,48.5,29.76,ESE,121,0.0,1.0,93,0.00,,,0.00,Wunderground v.1.15,2013-05-28 09:52:00,
2013-05-28 02:57:00,50.2,48.3,29.76,ESE,121,0.0,1.0,93,0.00,,,0.00,Wunderground v.1.15,2013-05-28 09:57:00,
2013-05-28 03:02:00,50.3,48.4,29.76,ESE,121,4.0,4.0,93,0.00,,,0.00,Wunderground v.1.15,2013-05-28 10:02:00,
2013-05-28 03:07:00,50.6,48.7,29.76,ESE,121,2.0,4.0,93,0.00,,,0.00,Wunderground v.1.15,2013-05-28 10:07:00,
2013-05-28 03:12:00,50.9,48.9,29.76,ESE,121,5.0,5.0,93,0.00,,,0.00,Wunderground v.1.15,2013-05-28 10:12:00,
2013-05-28 03:17:00,50.8,48.8,29.76,ESE,121,4.0,5.0,93,0.00,,,0.00,Wunderground v.1.15,2013-05-28 10:17:00,
2013-05-28 03:22:00,50.8,48.6,29.76,ESE,121,2.0,4.0,92,0.00,,,0.00,Wunderground v.1.15,2013-05-28 10:22:00,
2013-05-28 03:27:00,50.7,48.7,29.76,ESE,121,0.0,4.0,93,0.00,,,0.00,Wunderground v.1.15,2013-05-28 10:27:00,
2013-05-28 03:32:00,50.6,48.7,29.76,ESE,121,0.0,1.0,93,0.00,,,0.00,Wunderground v.1.15,2013-05-28 10:32:00,
2013-05-28 03:37:00,50.5,48.6,29.76,ESE,121,0.0,1.0,93,0.00,,,0.00,Wunderground v.1.15,2013-05-28 10:37:00,
2013-05-28 03:42:00,50.5,48.6,29.76,ESE,121,0.0,0.0,93,0.00,,,0.00,Wunderground v.1.15,2013-05-28 10:42:00,
2013-05-28 03:47:00,50.5,48.6,29.76,ESE,121,0.0,0.0,93,0.00,,,0.00,Wunderground v.1.15,2013-05-28 10:47:00,
2013-05-28 03:52:00,50.5,48.6,29.76,ESE,121,0.0,0.0,93,0.00,,,0.00,Wunderground v.1.15,2013-05-28 10:52:00,
2013-05-28 03:57:00,50.7,48.7,29.76,ESE,121,0.0,0.0,93,0.00,,,0.00,Wunderground v.1.15,2013-05-28 10:57:00,
2013-05-28 04:02:00,50.8,48.8,29.76,ESE,121,0.0,0.0,93,0.00,,,0.00,Wunderground v.1.15,2013-05-28 11:02:00,
2013-05-28 04:07:00,50.9,48.9,29.76,ESE,121,0.0,0.0,93,0.00,,,0.00,Wunderground v.1.15,2013-05-28 11:07:00,
2013-05-28 04:12:00,51.0,49.0,29.76,ESE,121,1.0,1.0,93,0.00,,,0.00,Wunderground v.1.15,2013-05-28 11:12:00,
2013-05-28 04:17:00,51.0,49.0,29.76,ESE,121,0.0,1.0,93,0.00,,,0.00,Wunderground v.1.15,2013-05-28 11:17:00,
2013-05-28 04:22:00,51.0,49.0,29.76,ESE,121,0.0,0.0,93,0.00,,,0.00,Wunderground v.1.15,2013-05-28 11:22:00,
2013-05-28 04:27:00,51.1,49.1,29.76,ESE,121,0.0,0.0,93,0.00,,,0.00,Wunderground v.1.15,2013-05-28 11:27:00,
2013-05-28 04:32:00,51.1,49.1,29.76,ESE,121,0.0,0.0,93,0.00,,,0.00,Wunderground v.1.15,2013-05-28 11:32:00,
2013-05-28 04:37:00,50.9,48.7,29.76,ESE,121,0.0,0.0,92,0.00,,,0.00,Wunderground v.1.15,2013-05-28 11:37:00,
2013-05-28 04:42:00,50.6,48.4,29.76,ESE,121,0.0,2.0,92,0.00,,,0.00,Wunderground v.1.15,2013-05-28 11:42:00,
2013-05-28 04:47:00,50.2,48.0,29.77,ESE,121,4.0,4.0,92,0.00,,,0.00,Wunderground v.1.15,2013-05-28 11:47:00,
2013-05-28 04:52:00,49.9,47.7,29.77,ESE,121,2.0,2.0,92,0.00,,,0.00,Wunderground v.1.15,2013-05-28 11:52:00,
2013-05-28 04:57:00,49.7,47.8,29.76,ESE,121,1.0,2.0,93,0.00,,,0.00,Wunderground v.1.15,2013-05-28 11:57:00,
2013-05-28 05:02:00,49.7,47.8,29.77,ESE,121,0.0,1.0,93,0.00,,,0.00,Wunderground v.1.15,2013-05-28 12:02:00,
2013-05-28 05:07:00,49.7,47.8,29.77,SE,128,0.0,1.0,93,0.00,,,0.00,Wunderground v.1.15,2013-05-28 12:07:00,
2013-05-28 05:12:00,49.7,47.8,29.77,SE,128,0.0,0.0,93,0.00,,,0.00,Wunderground v.1.15,2013-05-28 12:12:00,
2013-05-28 05:17:00,49.7,47.8,29.77,SE,128,0.0,0.0,93,0.00,,,0.00,Wunderground v.1.15,2013-05-28 12:17:00,
2013-05-28 05:22:00,49.7,48.0,29.77,SE,128,0.0,0.0,94,0.00,,,0.00,Wunderground v.1.15,2013-05-28 12:22:00,
2013-05-28 05:27:00,49.8,48.1,29.77,SE,128,0.0,0.0,94,0.00,,,0.00,Wunderground v.1.15,2013-05-28 12:27:00,
2013-05-28 05:32:00,49.9,48.2,29.77,SE,128,0.0,0.0,94,0.00,,,0.00,Wunderground v.1.15,2013-05-28 12:32:00,
2013-05-28 05:37:00,50.0,48.3,29.77,SE,128,0.0,0.0,94,0.00,,,0.00,Wunderground v.1.15,2013-05-28 12:37:00,
2013-05-28 05:42:00,50.0,48.3,29.77,SE,128,0.0,1.0,94,0.00,,,0.00,Wunderground v.1.15,2013-05-28 12:42:00,
2013-05-28 05:47:00,50.1,48.4,29.77,SE,126,0.0,1.0,94,0.00,,,0.00,Wunderground v.1.15,2013-05-28 12:47:00,
2013-05-28 05:52:00,50.1,48.4,29.77,SE,126,0.0,0.0,94,0.00,,,0.00,Wunderground v.1.15,2013-05-28 12:52:00,
2013-05-28 05:57:00,50.1,48.4,29.77,SE,126,0.0,0.0,94,0.00,,,0.00,Wunderground v.1.15,2013-05-28 12:57:00,
2013-05-28 06:02:00,50.1,48.4,29.77,SE,126,0.0,0.0,94,0.00,,,0.00,Wunderground v.1.15,2013-05-28 13:02:00,
2013-05-28 06:07:00,50.2,48.5,29.77,SE,126,0.0,0.0,94,0.00,,,0.00,Wunderground v.1.15,2013-05-28 13:07:00,
2013-05-28 06:12:00,50.3,48.6,29.77,SE,126,0.0,0.0,94,0.00,,,0.00,Wunderground v.1.15,2013-05-28 13:12:00,
2013-05-28 06:17:00,50.3,48.6,29.77,SE,126,0.0,0.0,94,0.00,,,0.00,Wunderground v.1.15,2013-05-28 13:17:00,
2013-05-28 06:22:00,50.2,48.5,29.77,SE,126,0.0,1.0,94,0.00,,,0.00,Wunderground v.1.15,2013-05-28 13:22:00,
2013-05-28 06:27:00,50.2,48.5,29.77,SE,126,0.0,1.0,94,0.00,,,0.00,Wunderground v.1.15,2013-05-28 13:27:00,
2013-05-28 06:32:00,50.2,48.5,29.77,SE,126,0.0,0.0,94,0.00,,,0.00,Wunderground v.1.15,2013-05-28 13:32:00,
2013-05-28 06:37:00,50.3,48.6,29.78,ESE,117,0.0,1.0,94,0.00,,,0.00,Wunderground v.1.15,2013-05-28 13:37:00,
2013-05-28 06:42:00,50.4,48.7,29.78,ESE,117,0.0,1.0,94,0.00,,,0.00,Wunderground v.1.15,2013-05-28 13:42:00,
2013-05-28 06:47:00,50.5,48.8,29.78,ESE,117,0.0,1.0,94,0.00,,,0.00,Wunderground v.1.15,2013-05-28 13:47:00,
2013-05-28 06:52:00,50.6,48.9,29.78,ESE,117,0.0,0.0,94,0.00,,,0.00,Wunderground v.1.15,2013-05-28 13:52:00,
2013-05-28 06:57:00,50.7,49.0,29.78,ESE,117,0.0,0.0,94,0.00,,,0.00,Wunderground v.1.15,2013-05-28 13:57:00,
2013-05-28 07:02:00,50.8,49.1,29.78,ESE,117,0.0,0.0,94,0.00,,,0.00,Wunderground v.1.15,2013-05-28 14:02:00,
2013-05-28 07:07:00,50.8,49.1,29.78,SE,129,0.0,0.0,94,0.00,,,0.00,Wunderground v.1.15,2013-05-28 14:07:00,
2013-05-28 07:12:00,50.9,49.2,29.78,SE,129,0.0,0.0,94,0.00,,,0.00,Wunderground v.1.15,2013-05-28 14:12:00,
2013-05-28 07:17:00,51.0,49.3,29.78,SE,129,0.0,0.0,94,0.00,,,0.00,Wunderground v.1.15,2013-05-28 14:17:00,
2013-05-28 07:22:00,51.1,49.4,29.78,SE,129,0.0,2.0,94,0.00,,,0.00,Wunderground v.1.15,2013-05-28 14:22:00,
2013-05-28 07:27:00,51.3,49.6,29.78,SE,129,0.0,2.0,94,0.00,,,0.00,Wunderground v.1.15,2013-05-28 14:27:00,
2013-05-28 07:32:00,51.4,49.7,29.78,SE,129,2.0,2.0,94,0.00,,,0.00,Wunderground v.1.15,2013-05-28 14:32:00,
2013-05-28 07:37:00,51.5,49.8,29.78,SE,129,0.0,2.0,94,0.00,,,0.00,Wunderground v.1.15,2013-05-28 14:37:00,
2013-05-28 07:42:00,52.0,50.6,29.78,SE,129,0.0,0.0,95,0.00,,,0.00,Wunderground v.1.15,2013-05-28 14:42:00,
2013-05-28 07:47:00,52.7,51.3,29.79,SE,129,0.0,1.0,95,0.00,,,0.00,Wunderground v.1.15,2013-05-28 14:47:00,
2013-05-28 07:52:00,52.8,51.1,29.79,SE,129,2.0,2.0,94,0.00,,,0.00,Wunderground v.1.15,2013-05-28 14:52:00,
2013-05-28 07:57:00,52.6,50.6,29.79,SE,129,0.0,4.0,93,0.00,,,0.00,Wunderground v.1.15,2013-05-28 14:57:00,
2013-05-28 08:02:00,52.6,50.6,29.79,ESE,120,0.0,2.0,93,0.00,,,0.00,Wunderground v.1.15,2013-05-28 15:02:00,
2013-05-28 08:07:00,52.6,50.6,29.79,ESE,120,1.0,2.0,93,0.00,,,0.00,Wunderground v.1.15,2013-05-28 15:07:00,
2013-05-28 08:12:00,52.9,50.9,29.79,ESE,120,0.0,0.0,93,0.00,,,0.00,Wunderground v.1.15,2013-05-28 15:12:00,
2013-05-28 08:17:00,53.0,51.0,29.79,ESE,120,0.0,2.0,93,0.00,,,0.00,Wunderground v.1.15,2013-05-28 15:17:00,
2013-05-28 08:22:00,53.3,51.3,29.79,ESE,120,0.0,1.0,93,0.00,,,0.00,Wunderground v.1.15,2013-05-28 15:22:00,
2013-05-28 08:27:00,53.7,51.4,29.79,ESE,120,0.0,1.0,92,0.00,,,0.00,Wunderground v.1.15,2013-05-28 15:27:00,
2013-05-28 08:32:00,53.9,51.6,29.78,ESE,120,2.0,2.0,92,0.00,,,0.00,Wunderground v.1.15,2013-05-28 15:32:00,
2013-05-28 08:37:00,54.1,51.8,29.78,ESE,120,0.0,4.0,92,0.00,,,0.00,Wunderground v.1.15,2013-05-28 15:37:00,
2013-05-28 08:42:00,54.4,51.5,29.78,ESE,120,0.0,1.0,90,0.00,,,0.00,Wunderground v.1.15,2013-05-28 15:42:00,
2013-05-28 08:47:00,54.6,51.7,29.78,ESE,120,5.0,6.0,90,0.00,,,0.00,Wunderground v.1.15,2013-05-28 15:47:00,
2013-05-28 08:52:00,54.7,51.5,29.79,ESE,120,2.0,4.0,89,0.00,,,0.00,Wunderground v.1.15,2013-05-28 15:52:00,
2013-05-28 08:57:00,54.7,51.5,29.78,ESE,120,0.0,5.0,89,0.00,,,0.00,Wunderground v.1.15,2013-05-28 15:57:00,
2013-05-28 09:02:00,54.8,51.0,29.79,ESE,120,4.0,4.0,87,0.00,,,0.00,Wunderground v.1.15,2013-05-28 16:02:00,
2013-05-28 09:07:00,54.7,50.6,29.79,ESE,120,1.0,6.0,86,0.00,,,0.00,Wunderground v.1.15,2013-05-28 16:07:00,
2013-05-28 09:12:00,55.2,51.1,29.79,ESE,120,4.0,5.0,86,0.00,,,0.00,Wunderground v.1.15,2013-05-28 16:12:00,
2013-05-28 09:17:00,55.8,51.4,29.78,ESE,120,1.0,5.0,85,0.00,,,0.00,Wunderground v.1.15,2013-05-28 16:17:00,
2013-05-28 09:22:00,55.9,51.1,29.79,ESE,120,5.0,5.0,84,0.00,,,0.00,Wunderground v.1.15,2013-05-28 16:22:00,
2013-05-28 09:27:00,56.1,51.3,29.79,ESE,120,4.0,7.0,84,0.00,,,0.00,Wunderground v.1.15,2013-05-28 16:27:00,
2013-05-28 09:32:00,56.3,50.5,29.79,ESE,120,6.0,6.0,81,0.00,,,0.00,Wunderground v.1.15,2013-05-28 16:32:00,
2013-05-28 09:37:00,56.7,51.6,29.79,ESE,121,5.0,7.0,83,0.00,,,0.00,Wunderground v.1.15,2013-05-28 16:37:00,
2013-05-28 09:42:00,56.7,50.3,29.79,South,170,4.0,7.0,79,0.00,,,0.00,Wunderground v.1.15,2013-05-28 16:42:00,
2013-05-28 09:47:00,57.1,50.3,29.79,South,170,0.0,7.0,78,0.00,,,0.00,Wunderground v.1.15,2013-05-28 16:47:00,
2013-05-28 09:52:00,58.1,50.9,29.78,South,170,1.0,5.0,77,0.00,,,0.00,Wunderground v.1.15,2013-05-28 16:52:00,
2013-05-28 09:57:00,58.2,50.7,29.79,SSW,202,6.0,8.0,76,0.00,,,0.00,Wunderground v.1.15,2013-05-28 16:57:00,
2013-05-28 10:02:00,58.1,50.2,29.79,SSW,203,4.0,6.0,75,0.00,,,0.00,Wunderground v.1.15,2013-05-28 17:02:00,
2013-05-28 10:07:00,58.0,50.8,29.79,SSW,203,0.0,6.0,77,0.00,,,0.00,Wunderground v.1.15,2013-05-28 17:07:00,
2013-05-28 10:12:00,58.5,51.0,29.79,SSW,203,2.0,5.0,76,0.00,,,0.00,Wunderground v.1.15,2013-05-28 17:12:00,
2013-05-28 10:17:00,58.9,50.6,29.79,SSW,207,3.0,6.0,74,0.00,,,0.00,Wunderground v.1.15,2013-05-28 17:17:00,
2013-05-28 10:22:00,58.9,50.3,29.79,SSW,207,4.0,5.0,73,0.00,,,0.00,Wunderground v.1.15,2013-05-28 17:22:00,
2013-05-28 10:27:00,59.3,50.3,29.79,SSW,207,0.0,5.0,72,0.00,,,0.00,Wunderground v.1.15,2013-05-28 17:27:00,
2013-05-28 10:32:00,60.2,50.8,29.79,SSW,206,4.0,7.0,71,0.00,,,0.00,Wunderground v.1.15,2013-05-28 17:32:00,
2013-05-28 10:37:00,60.3,50.5,29.79,SW,233,7.0,9.0,70,0.00,,,0.00,Wunderground v.1.15,2013-05-28 17:37:00,
2013-05-28 10:42:00,59.5,49.3,29.79,SW,234,3.0,5.0,69,0.00,,,0.00,Wunderground v.1.15,2013-05-28 17:42:00,
2013-05-28 10:47:00,58.8,49.4,29.79,SW,234,4.0,8.0,71,0.00,,,0.00,Wunderground v.1.15,2013-05-28 17:47:00,
2013-05-28 10:52:00,58.8,49.4,29.79,SW,234,0.0,4.0,71,0.00,,,0.00,Wunderground v.1.15,2013-05-28 17:52:00,
2013-05-28 10:57:00,59.5,49.3,29.79,SW,234,5.0,5.0,69,0.00,,,0.00,Wunderground v.1.15,2013-05-28 17:57:00,
2013-05-28 11:02:00,59.8,49.6,29.79,SW,234,0.0,2.0,69,0.00,,,0.00,Wunderground v.1.15,2013-05-28 18:02:00,
2013-05-28 11:07:00,60.3,48.9,29.79,SW,234,5.0,6.0,66,0.00,,,0.00,Wunderground v.1.15,2013-05-28 18:07:00,
2013-05-28 11:13:00,60.1,48.7,29.79,SW,234,0.0,2.0,66,0.00,,,0.00,Wunderground v.1.15,2013-05-28 18:13:00,
2013-05-28 11:18:00,60.1,49.1,29.79,SW,234,0.0,6.0,67,0.00,,,0.00,Wunderground v.1.15,2013-05-28 18:18:00,
2013-05-28 11:23:00,60.4,49.0,29.79,SW,234,1.0,8.0,66,0.00,,,0.00,Wunderground v.1.15,2013-05-28 18:23:00,
2013-05-28 11:28:00,61.1,49.2,29.79,SW,236,1.0,8.0,65,0.00,,,0.00,Wunderground v.1.15,2013-05-28 18:28:00,
2013-05-28 11:33:00,61.7,49.8,29.79,SW,235,5.0,7.0,65,0.00,,,0.00,Wunderground v.1.15,2013-05-28 18:33:00,
2013-05-28 11:38:00,62.2,49.0,29.79,SW,235,2.0,7.0,62,0.00,,,0.00,Wunderground v.1.15,2013-05-28 18:38:00,
2013-05-28 11:43:00,62.7,48.6,29.79,WSW,239,4.0,9.0,60,0.00,,,0.00,Wunderground v.1.15,2013-05-28 18:43:00,
2013-05-28 11:48:00,62.7,48.2,29.79,WSW,239,0.0,9.0,59,0.00,,,0.00,Wunderground v.1.15,2013-05-28 18:48:00,
2013-05-28 11:53:00,63.2,49.5,29.79,SW,232,5.0,6.0,61,0.00,,,0.00,Wunderground v.1.15,2013-05-28 18:53:00,
2013-05-28 11:58:00,63.7,48.6,29.79,SW,232,6.0,7.0,58,0.00,,,0.00,Wunderground v.1.15,2013-05-28 18:58:00,
2013-05-28 12:03:00,64.0,47.5,29.79,SW,229,5.0,7.0,55,0.00,,,0.00,Wunderground v.1.15,2013-05-28 19:03:00,
2013-05-28 12:08:00,63.6,48.5,29.79,WSW,240,4.0,10.0,58,0.00,,,0.00,Wunderground v.1.15,2013-05-28 19:08:00,
2013-05-28 12:13:00,63.3,47.8,29.79,SW,217,10.0,12.0,57,0.00,,,0.00,Wunderground v.1.15,2013-05-28 19:13:00,
2013-05-28 12:18:00,62.9,47.4,29.79,SSW,213,7.0,12.0,57,0.00,,,0.00,Wunderground v.1.15,2013-05-28 19:18:00,
2013-05-28 12:23:00,62.5,47.5,29.79,WSW,244,7.0,8.0,58,0.00,,,0.00,Wunderground v.1.15,2013-05-28 19:23:00,
2013-05-28 12:28:00,62.7,46.8,29.79,WSW,238,3.0,8.0,56,0.00,,,0.00,Wunderground v.1.15,2013-05-28 19:28:00,
2013-05-28 12:33:00,62.6,47.1,29.79,WSW,241,5.0,7.0,57,0.00,,,0.00,Wunderground v.1.15,2013-05-28 19:33:00,
2013-05-28 12:38:00,62.6,48.1,29.79,WSW,244,6.0,8.0,59,0.00,,,0.00,Wunderground v.1.15,2013-05-28 19:38:00,
2013-05-28 12:43:00,62.8,47.8,29.78,SW,234,4.0,10.0,58,0.00,,,0.00,Wunderground v.1.15,2013-05-28 19:43:00,
2013-05-28 12:48:00,63.2,47.2,29.78,SSW,209,4.0,12.0,56,0.00,,,0.00,Wunderground v.1.15,2013-05-28 19:48:00,
2013-05-28 12:53:00,63.0,48.0,29.78,WSW,254,4.0,9.0,58,0.00,,,0.00,Wunderground v.1.15,2013-05-28 19:53:00,
2013-05-28 12:58:00,63.1,48.1,29.78,SW,234,1.0,14.0,58,0.00,,,0.00,Wunderground v.1.15,2013-05-28 19:58:00,
2013-05-28 13:03:00,63.2,45.8,29.78,SW,225,6.0,9.0,53,0.00,,,0.00,Wunderground v.1.15,2013-05-28 20:03:00,
2013-05-28 13:08:00,63.0,46.6,29.78,SW,227,2.0,9.0,55,0.00,,,0.00,Wunderground v.1.15,2013-05-28 20:08:00,
2013-05-28 13:13:00,63.8,46.3,29.78,SW,224,5.0,6.0,53,0.00,,,0.00,Wunderground v.1.15,2013-05-28 20:13:00,
2013-05-28 13:18:00,63.7,46.7,29.78,SW,229,8.0,11.0,54,0.00,,,0.00,Wunderground v.1.15,2013-05-28 20:18:00,
2013-05-28 13:23:00,64.0,47.0,29.78,SSW,207,6.0,10.0,54,0.00,,,0.00,Wunderground v.1.15,2013-05-28 20:23:00,
2013-05-28 13:28:00,64.1,45.6,29.78,WSW,257,8.0,13.0,51,0.00,,,0.00,Wunderground v.1.15,2013-05-28 20:28:00,
2013-05-28 13:33:00,63.9,46.9,29.78,WSW,253,6.0,7.0,54,0.00,,,0.00,Wunderground v.1.15,2013-05-28 20:33:00,
2013-05-28 13:38:00,63.9,46.9,29.78,SW,233,3.0,9.0,54,0.00,,,0.00,Wunderground v.1.15,2013-05-28 20:38:00,
2013-05-28 13:43:00,64.2,47.2,29.78,SSW,213,8.0,9.0,54,0.00,,,0.00,Wunderground v.1.15,2013-05-28 20:43:00,
2013-05-28 13:48:00,64.5,46.5,29.78,WSW,242,11.0,16.0,52,0.00,,,0.00,Wunderground v.1.15,2013-05-28 20:48:00,
2013-05-28 13:53:00,64.4,46.9,29.77,SW,214,3.0,9.0,53,0.00,,,0.00,Wunderground v.1.15,2013-05-28 20:53:00,
2013-05-28 13:58:00,64.0,46.5,29.78,WSW,250,11.0,15.0,53,0.00,,,0.00,Wunderground v.1.15,2013-05-28 20:58:00,
2013-05-28 14:03:00,63.6,46.6,29.77,WNW,282,5.0,10.0,54,0.00,,,0.00,Wunderground v.1.15,2013-05-28 21:03:00,
2013-05-28 14:08:00,63.5,47.0,29.77,WNW,290,4.0,10.0,55,0.00,,,0.00,Wunderground v.1.15,2013-05-28 21:08:00,
2013-05-28 14:13:00,63.8,46.8,29.77,WNW,286,3.0,6.0,54,0.00,,,0.00,Wunderground v.1.15,2013-05-28 21:13:00,
2013-05-28 14:18:00,63.9,47.4,29.77,NW,306,5.0,8.0,55,0.00,,,0.00,Wunderground v.1.15,2013-05-28 21:18:00,
2013-05-28 14:23:00,64.6,48.1,29.77,WNW,296,1.0,6.0,55,0.00,,,0.00,Wunderground v.1.15,2013-05-28 21:23:00,
2013-05-28 14:28:00,65.5,46.9,29.77,WNW,296,4.0,6.0,51,0.00,,,0.00,Wunderground v.1.15,2013-05-28 21:28:00,
2013-05-28 14:33:00,65.8,47.2,29.77,NW,309,2.0,7.0,51,0.00,,,0.00,Wunderground v.1.15,2013-05-28 21:33:00,
2013-05-28 14:38:00,66.3,47.6,29.77,SW,234,8.0,9.0,51,0.00,,,0.00,Wunderground v.1.15,2013-05-28 21:38:00,
2013-05-28 14:43:00,66.5,44.5,29.77,West,267,13.0,13.0,45,0.00,,,0.00,Wunderground v.1.15,2013-05-28 21:43:00,
2013-05-28 14:48:00,66.5,43.9,29.77,WSW,238,7.0,15.0,44,0.00,,,0.00,Wunderground v.1.15,2013-05-28 21:48:00,
2013-05-28 14:53:00,66.6,43.4,29.77,WSW,239,5.0,10.0,43,0.00,,,0.00,Wunderground v.1.15,2013-05-28 21:53:00,
2013-05-28 14:58:00,66.4,43.2,29.76,WSW,253,4.0,19.0,43,0.00,,,0.00,Wunderground v.1.15,2013-05-28 21:58:00,
2013-05-28 15:03:00,66.9,43.0,29.76,WSW,246,10.0,15.0,42,0.00,,,0.00,Wunderground v.1.15,2013-05-28 22:03:00,
2013-05-28 15:08:00,67.1,43.8,29.76,SW,221,11.0,16.0,43,0.00,,,0.00,Wunderground v.1.15,2013-05-28 22:08:00,
2013-05-28 15:13:00,67.7,43.8,29.76,SW,232,8.0,13.0,42,0.00,,,0.00,Wunderground v.1.15,2013-05-28 22:13:00,
2013-05-28 15:18:00,67.2,42.7,29.76,West,281,9.0,19.0,41,0.00,,,0.00,Wunderground v.1.15,2013-05-28 22:18:00,
2013-05-28 15:23:00,67.0,43.8,29.76,SW,228,12.0,17.0,43,0.00,,,0.00,Wunderground v.1.15,2013-05-28 22:23:00,
2013-05-28 15:28:00,66.5,43.9,29.76,WSW,254,15.0,19.0,44,0.00,,,0.00,Wunderground v.1.15,2013-05-28 22:28:00,
2013-05-28 15:33:00,67.1,43.8,29.76,SW,224,10.0,14.0,43,0.00,,,0.00,Wunderground v.1.15,2013-05-28 22:33:00,
2013-05-28 15:38:00,67.5,43.6,29.76,WSW,256,11.0,20.0,42,0.00,,,0.00,Wunderground v.1.15,2013-05-28 22:38:00,
2013-05-28 15:43:00,66.8,43.0,29.76,SW,222,11.0,12.0,42,0.00,,,0.00,Wunderground v.1.15,2013-05-28 22:43:00,
2013-05-28 15:48:00,67.0,42.5,29.76,WSW,238,13.0,19.0,41,0.00,,,0.00,Wunderground v.1.15,2013-05-28 22:48:00,
2013-05-28 15:53:00,66.8,41.7,29.76,SW,215,10.0,17.0,40,0.00,,,0.00,Wunderground v.1.15,2013-05-28 22:53:00,
2013-05-28 15:58:00,67.1,42.6,29.75,SW,222,12.0,17.0,41,0.00,,,0.00,Wunderground v.1.15,2013-05-28 22:58:00,
2013-05-28 16:03:00,67.6,43.7,29.75,SW,228,8.0,19.0,42,0.00,,,0.00,Wunderground v.1.15,2013-05-28 23:03:00,
2013-05-28 16:08:00,67.2,42.7,29.75,SW,216,8.0,19.0,41,0.00,,,0.00,Wunderground v.1.15,2013-05-28 23:08:00,
2013-05-28 16:13:00,67.7,43.8,29.75,SSW,208,10.0,17.0,42,0.00,,,0.00,Wunderground v.1.15,2013-05-28 23:13:00,
2013-05-28 16:18:00,67.9,43.3,29.75,SSW,194,9.0,18.0,41,0.00,,,0.00,Wunderground v.1.15,2013-05-28 23:18:00,
2013-05-28 16:23:00,67.6,41.7,29.74,SSW,192,11.0,15.0,39,0.00,,,0.00,Wunderground v.1.15,2013-05-28 23:23:00,
2013-05-28 16:28:00,68.0,42.8,29.74,SSW,211,5.0,17.0,40,0.00,,,0.00,Wunderground v.1.15,2013-05-28 23:28:00,
2013-05-28 16:33:00,68.1,43.5,29.74,SSW,202,11.0,15.0,41,0.00,,,0.00,Wunderground v.1.15,2013-05-28 23:33:00,
2013-05-28 16:38:00,67.8,42.6,29.74,WSW,244,14.0,18.0,40,0.00,,,0.00,Wunderground v.1.15,2013-05-28 23:38:00,
2013-05-28 16:43:00,67.6,41.1,29.74,WSW,252,9.0,16.0,38,0.00,,,0.00,Wunderground v.1.15,2013-05-28 23:43:00,
2013-05-28 16:48:00,67.7,44.4,29.74,SSW,211,10.0,19.0,43,0.00,,,0.00,Wunderground v.1.15,2013-05-28 23:48:00,
2013-05-28 16:53:00,67.4,42.9,29.74,SSW,203,5.0,11.0,41,0.00,,,0.00,Wunderground v.1.15,2013-05-28 23:53:00,
2013-05-28 16:58:00,67.5,43.0,29.74,WSW,242,14.0,14.0,41,0.00,,,0.00,Wunderground v.1.15,2013-05-28 23:58:00,
2013-05-28 17:03:00,67.5,43.0,29.73,WSW,257,11.0,11.0,41,0.00,,,0.00,Wunderground v.1.15,2013-05-29 00:03:00,
2013-05-28 17:08:00,67.8,42.6,29.73,SSW,194,9.0,16.0,40,0.00,,,0.00,Wunderground v.1.15,2013-05-29 00:08:00,
2013-05-28 17:13:00,67.7,43.1,29.73,SSW,207,3.0,15.0,41,0.00,,,0.00,Wunderground v.1.15,2013-05-29 00:13:00,
2013-05-28 17:18:00,67.9,42.0,29.73,SW,225,6.0,16.0,39,0.00,,,0.00,Wunderground v.1.15,2013-05-29 00:18:00,
2013-05-28 17:23:00,67.9,43.3,29.73,SSW,194,6.0,11.0,41,0.00,,,0.00,Wunderground v.1.15,2013-05-29 00:23:00,
2013-05-28 17:28:00,68.2,44.2,29.73,South,187,10.0,16.0,42,0.00,,,0.00,Wunderground v.1.15,2013-05-29 00:28:00,
2013-05-28 17:33:00,68.4,46.2,29.73,SW,226,4.0,13.0,45,0.00,,,0.00,Wunderground v.1.15,2013-05-29 00:33:00,
2013-05-28 17:38:00,68.0,43.4,29.73,SW,236,8.0,15.0,41,0.00,,,0.00,Wunderground v.1.15,2013-05-29 00:38:00,
2013-05-28 17:43:00,67.8,42.6,29.73,WSW,256,16.0,16.0,40,0.00,,,0.00,Wunderground v.1.15,2013-05-29 00:43:00,
2013-05-28 17:48:00,67.6,42.4,29.72,SW,217,5.0,16.0,40,0.00,,,0.00,Wunderground v.1.15,2013-05-29 00:48:00,
2013-05-28 17:53:00,67.7,43.1,29.72,SW,220,8.0,13.0,41,0.00,,,0.00,Wunderground v.1.15,2013-05-29 00:53:00,
2013-05-28 17:58:00,67.6,42.4,29.72,WSW,252,12.0,16.0,40,0.00,,,0.00,Wunderground v.1.15,2013-05-29 00:58:00,
2013-05-28 18:03:00,67.6,43.7,29.72,SW,227,5.0,15.0,42,0.00,,,0.00,Wunderground v.1.15,2013-05-29 01:03:00,
2013-05-28 18:08:00,67.8,43.2,29.72,WSW,238,11.0,15.0,41,0.00,,,0.00,Wunderground v.1.15,2013-05-29 01:08:00,
2013-05-28 18:13:00,67.7,43.1,29.72,SSW,207,13.0,13.0,41,0.00,,,0.00,Wunderground v.1.15,2013-05-29 01:13:00,
2013-05-28 18:18:00,67.7,43.1,29.72,SW,219,7.0,14.0,41,0.00,,,0.00,Wunderground v.1.15,2013-05-29 01:18:00,
2013-05-28 18:23:00,67.4,42.9,29.72,SW,236,14.0,17.0,41,0.00,,,0.00,Wunderground v.1.15,2013-05-29 01:23:00,
2013-05-28 18:28:00,67.1,42.0,29.72,WSW,244,9.0,17.0,40,0.00,,,0.00,Wunderground v.1.15,2013-05-29 01:28:00,
2013-05-28 18:33:00,67.2,42.7,29.72,WSW,240,8.0,15.0,41,0.00,,,0.00,Wunderground v.1.15,2013-05-29 01:33:00,
2013-05-28 18:38:00,67.2,43.3,29.72,SW,225,11.0,15.0,42,0.00,,,0.00,Wunderground v.1.15,2013-05-29 01:38:00,
2013-05-28 18:43:00,67.1,43.8,29.72,SW,222,10.0,15.0,43,0.00,,,0.00,Wunderground v.1.15,2013-05-29 01:43:00,
2013-05-28 18:48:00,67.0,43.8,29.72,SW,215,9.0,15.0,43,0.00,,,0.00,Wunderground v.1.15,2013-05-29 01:48:00,
2013-05-28 18:54:00,67.0,44.4,29.71,SSW,207,7.0,11.0,44,0.00,,,0.00,Wunderground v.1.15,2013-05-29 01:54:00,
2013-05-28 18:59:00,66.8,44.8,29.71,SSW,197,9.0,12.0,45,0.00,,,0.00,Wunderground v.1.15,2013-05-29 01:59:00,
2013-05-28 19:04:00,66.6,44.6,29.71,SSW,209,6.0,12.0,45,0.00,,,0.00,Wunderground v.1.15,2013-05-29 02:04:00,
2013-05-28 19:09:00,66.2,44.8,29.71,SSW,212,8.0,13.0,46,0.00,,,0.00,Wunderground v.1.15,2013-05-29 02:09:00,
2013-05-28 19:14:00,65.9,44.5,29.71,SW,223,9.0,9.0,46,0.00,,,0.00,Wunderground v.1.15,2013-05-29 02:14:00,
2013-05-28 19:19:00,65.1,44.9,29.70,SW,223,7.0,10.0,48,0.00,,,0.00,Wunderground v.1.15,2013-05-29 02:19:00,
2013-05-28 19:24:00,64.3,45.8,29.70,SW,215,5.0,8.0,51,0.00,,,0.00,Wunderground v.1.15,2013-05-29 02:24:00,
2013-05-28 19:29:00,63.8,45.8,29.70,SW,219,3.0,8.0,52,0.00,,,0.00,Wunderground v.1.15,2013-05-29 02:29:00,
2013-05-28 19:34:00,63.4,46.5,29.70,SW,220,1.0,6.0,54,0.00,,,0.00,Wunderground v.1.15,2013-05-29 02:34:00,
2013-05-28 19:39:00,63.1,46.7,29.70,SW,221,2.0,6.0,55,0.00,,,0.00,Wunderground v.1.15,2013-05-29 02:39:00,
2013-05-28 19:44:00,62.8,46.9,29.69,SW,218,4.0,5.0,56,0.00,,,0.00,Wunderground v.1.15,2013-05-29 02:44:00,
2013-05-28 19:49:00,62.9,46.5,29.69,SSW,213,5.0,7.0,55,0.00,,,0.00,Wunderground v.1.15,2013-05-29 02:49:00,
2013-05-28 19:54:00,63.2,46.8,29.69,SSW,208,5.0,6.0,55,0.00,,,0.00,Wunderground v.1.15,2013-05-29 02:54:00,
2013-05-28 19:59:00,63.5,46.6,29.69,SW,217,3.0,7.0,54,0.00,,,0.00,Wunderground v.1.15,2013-05-29 02:59:00,
2013-05-28 20:04:00,63.7,46.7,29.69,SSW,211,5.0,7.0,54,0.00,,,0.00,Wunderground v.1.15,2013-05-29 03:04:00,
2013-05-28 20:09:00,63.5,47.0,29.69,SW,223,5.0,7.0,55,0.00,,,0.00,Wunderground v.1.15,2013-05-29 03:09:00,
2013-05-28 20:14:00,63.3,46.9,29.69,SW,223,5.0,6.0,55,0.00,,,0.00,Wunderground v.1.15,2013-05-29 03:14:00,
2013-05-28 20:19:00,63.2,47.2,29.69,SW,227,3.0,6.0,56,0.00,,,0.00,Wunderground v.1.15,2013-05-29 03:19:00,
2013-05-28 20:24:00,63.0,46.6,29.69,SW,227,4.0,5.0,55,0.00,,,0.00,Wunderground v.1.15,2013-05-29 03:24:00,
2013-05-28 20:29:00,62.7,47.2,29.69,West,280,3.0,5.0,57,0.00,,,0.00,Wunderground v.1.15,2013-05-29 03:29:00,
2013-05-28 20:34:00,61.3,47.3,29.68,WNW,284,2.0,3.0,60,0.00,,,0.00,Wunderground v.1.15,2013-05-29 03:34:00,
2013-05-28 20:39:00,60.9,46.5,29.68,West,278,5.0,7.0,59,0.00,,,0.00,Wunderground v.1.15,2013-05-29 03:39:00,
2013-05-28 20:44:00,61.6,45.7,29.68,West,273,3.0,5.0,56,0.00,,,0.00,Wunderground v.1.15,2013-05-29 03:44:00,
2013-05-28 20:49:00,61.9,45.5,29.68,West,274,5.0,5.0,55,0.00,,,0.00,Wunderground v.1.15,2013-05-29 03:49:00,
2013-05-28 20:54:00,61.8,45.5,29.68,West,273,2.0,3.0,55,0.00,,,0.00,Wunderground v.1.15,2013-05-29 03:54:00,
2013-05-28 20:59:00,61.4,46.0,29.69,West,273,2.0,4.0,57,0.00,,,0.00,Wunderground v.1.15,2013-05-29 03:59:00,
2013-05-28 21:01:00,61.2,45.8,29.69,West,273,3.0,4.0,57,0.00,,,0.00,Wunderground v.1.15,2013-05-29 04:01:00,
2013-05-28 21:06:00,60.9,46.0,29.68,West,273,1.0,3.0,58,0.00,,,0.00,Wunderground v.1.15,2013-05-29 04:06:00,
2013-05-28 21:11:00,60.2,46.3,29.69,West,273,2.0,3.0,60,0.00,,,0.00,Wunderground v.1.15,2013-05-29 04:11:00,
2013-05-28 21:16:00,59.2,45.8,29.68,West,273,3.0,4.0,61,0.00,,,0.00,Wunderground v.1.15,2013-05-29 04:16:00,
2013-05-28 21:21:00,58.6,45.6,29.68,West,281,3.0,4.0,62,0.00,,,0.00,Wunderground v.1.15,2013-05-29 04:21:00,
2013-05-28 21:26:00,56.9,44.8,29.69,WNW,290,3.0,4.0,64,0.00,,,0.00,Wunderground v.1.15,2013-05-29 04:26:00,
2013-05-28 21:31:00,56.0,44.4,29.69,WNW,290,0.0,4.0,65,0.00,,,0.00,Wunderground v.1.15,2013-05-29 04:31:00,
2013-05-28 21:36:00,55.6,44.4,29.69,WNW,290,0.0,2.0,66,0.00,,,0.00,Wunderground v.1.15,2013-05-29 04:36:00,
2013-05-28 21:41:00,55.4,44.2,29.69,WNW,290,1.0,3.0,66,0.00,,,0.00,Wunderground v.1.15,2013-05-29 04:41:00,
2013-05-28 21:46:00,55.1,43.9,29.69,WNW,290,0.0,2.0,66,0.00,,,0.00,Wunderground v.1.15,2013-05-29 04:46:00,
2013-05-28 21:51:00,55.1,43.9,29.69,WNW,290,0.0,2.0,66,0.00,,,0.00,Wunderground v.1.15,2013-05-29 04:51:00,
2013-05-28 21:56:00,55.0,44.2,29.69,WNW,290,0.0,2.0,67,0.00,,,0.00,Wunderground v.1.15,2013-05-29 04:56:00,
2013-05-28 22:01:00,54.9,44.1,29.69,WNW,290,0.0,2.0,67,0.00,,,0.00,Wunderground v.1.15,2013-05-29 05:01:00,
2013-05-28 22:06:00,54.5,44.9,29.69,WNW,289,0.0,4.0,70,0.00,,,0.00,Wunderground v.1.15,2013-05-29 05:06:00,
2013-05-28 22:11:00,54.0,44.4,29.69,WNW,288,0.0,4.0,70,0.00,,,0.00,Wunderground v.1.15,2013-05-29 05:11:00,
2013-05-28 22:16:00,53.9,44.0,29.69,WNW,288,0.0,3.0,69,0.00,,,0.00,Wunderground v.1.15,2013-05-29 05:16:00,
2013-05-28 22:21:00,54.9,43.7,29.69,WNW,289,0.0,3.0,66,0.00,,,0.00,Wunderground v.1.15,2013-05-29 05:21:00,
2013-05-28 22:26:00,55.4,43.4,29.69,WNW,288,0.0,1.0,64,0.00,,,0.00,Wunderground v.1.15,2013-05-29 05:26:00,
2013-05-28 22:31:00,55.6,43.2,29.68,WNW,288,0.0,1.0,63,0.00,,,0.00,Wunderground v.1.15,2013-05-29 05:31:00,
2013-05-28 22:36:00,55.7,43.3,29.68,WNW,288,0.0,0.0,63,0.00,,,0.00,Wunderground v.1.15,2013-05-29 05:36:00,
2013-05-28 22:41:00,56.1,43.3,29.68,WNW,288,0.0,1.0,62,0.00,,,0.00,Wunderground v.1.15,2013-05-29 05:41:00,
2013-05-28 22:46:00,56.3,43.4,29.68,WNW,289,0.0,0.0,62,0.00,,,0.00,Wunderground v.1.15,2013-05-29 05:46:00,
2013-05-28 22:51:00,55.9,43.5,29.68,WNW,289,0.0,3.0,63,0.00,,,0.00,Wunderground v.1.15,2013-05-29 05:51:00,
2013-05-28 22:56:00,55.9,42.6,29.68,WNW,289,0.0,2.0,61,0.00,,,0.00,Wunderground v.1.15,2013-05-29 05:56:00,
2013-05-28 23:01:00,56.2,43.8,29.68,WNW,288,0.0,2.0,63,0.00,,,0.00,Wunderground v.1.15,2013-05-29 06:01:00,
2013-05-28 23:06:00,55.7,43.7,29.68,WNW,289,2.0,4.0,64,0.00,,,0.00,Wunderground v.1.15,2013-05-29 06:06:00,
2013-05-28 23:11:00,55.5,43.1,29.67,WNW,288,0.0,4.0,63,0.00,,,0.00,Wunderground v.1.15,2013-05-29 06:11:00,
2013-05-28 23:16:00,55.5,42.7,29.68,WNW,288,0.0,2.0,62,0.00,,,0.00,Wunderground v.1.15,2013-05-29 06:16:00,
2013-05-28 23:21:00,55.4,42.6,29.67,WNW,289,0.0,2.0,62,0.00,,,0.00,Wunderground v.1.15,2013-05-29 06:21:00,
2013-05-28 23:26:00,55.5,42.7,29.67,WNW,289,0.0,1.0,62,0.00,,,0.00,Wunderground v.1.15,2013-05-29 06:26:00,
2013-05-28 23:31:00,55.8,42.1,29.67,WNW,288,2.0,3.0,60,0.00,,,0.00,Wunderground v.1.15,2013-05-29 06:31:00,
2013-05-28 23:36:00,56.3,42.1,29.67,WNW,288,0.0,3.0,59,0.00,,,0.00,Wunderground v.1.15,2013-05-29 06:36:00,
2013-05-28 23:41:00,56.2,43.3,29.67,WNW,288,0.0,3.0,62,0.00,,,0.00,Wunderground v.1.15,2013-05-29 06:41:00,
2013-05-28 23:46:00,55.4,43.0,29.67,WNW,288,0.0,1.0,63,0.00,,,0.00,Wunderground v.1.15,2013-05-29 06:46:00,
2013-05-28 23:51:00,54.9,43.4,29.67,WNW,288,0.0,1.0,65,0.00,,,0.00,Wunderground v.1.15,2013-05-29 06:51:00,
2013-05-28 23:54:00,54.7,44.0,29.66,WNW,288,0.0,0.0,67,0.00,,,0.00,Wunderground v.1.15,2013-05-29 06:54:00,
2013-05-28 23:55:00,54.5,43.8,29.66,WNW,288,0.0,0.0,67,0.00,,,0.00,Wunderground v.1.15,2013-05-29 06:55:00,
2013-05-28 23:57:00,54.3,43.2,29.66,WNW,288,0.0,0.0,66,0.00,,,0.00,Wunderground v.1.15,2013-05-29 06:57:00,
2013-05-28 23:58:00,54.3,42.8,29.66,WNW,288,2.0,2.0,65,0.00,,,0.00,Wunderground v.1.15,2013-05-29 06:58:00,